When you browse on this site, cookies collect data to enhance your experience and personalize the content and advertising you see.
Visit our Privacy Policy to learn more. By continuing to use the site, you agree to this use of cookies and data.
  • In Austria
  • List of Countries
  • For 7 days
  • Water Temperature
  • Satellite Maps
  • Weather Map
  • News
  • Weather Widgets
  • user-avatar
    Login

    Hourly Weather Megri

    Today, 20 April, Saturday

    Time Temperature Precipitation Wind Pressure Humidity
    00:00 -1°C° 1 mm 4 mps 615 mmHg 86%
    01:00 -2°C° 2.1 mm 4 mps 614 mmHg 87%
    02:00 -2°C° 2.1 mm 4 mps 614 mmHg 88%
    03:00 -3°C° 0 mm 4 mps 613 mmHg 92%
    04:00 -2°C° 1.4 mm 3 mps 613 mmHg 91%
    05:00 -2°C° 1.4 mm 3 mps 614 mmHg 89%
    06:00 -2°C° 1.4 mm 3 mps 614 mmHg 88%
    07:00 -2°C° 1.9 mm 3 mps 614 mmHg 89%
    08:00 -2°C° 1.9 mm 3 mps 615 mmHg 90%
    09:00 -2°C° 1.9 mm 2 mps 615 mmHg 91%
    10:00 -2°C° 0.6 mm 2 mps 615 mmHg 90%
    11:00 -1°C° 0.6 mm 2 mps 616 mmHg 89%
    12:00 -1°C° 0.6 mm 2 mps 616 mmHg 88%
    13:00 +1°C° 0 mm 2 mps 616 mmHg 87%
    14:00 +2°C° 0 mm 2 mps 616 mmHg 86%
    15:00 +3°C° 0 mm 2 mps 617 mmHg 85%
    16:00 +2°C° 0 mm 2 mps 617 mmHg 84%
    17:00 +2°C° 0 mm 2 mps 617 mmHg 83%
    18:00 +2°C° 0 mm 2 mps 617 mmHg 82%
    19:00 +1°C° 0 mm 2 mps 617 mmHg 84%
    20:00 -1°C° 0 mm 2 mps 617 mmHg 85%
    21:00 -2°C° 0 mm 2 mps 617 mmHg 87%
    22:00 -2°C° 0.1 mm 2 mps 617 mmHg 87%
    23:00 -2°C° 0.1 mm 2 mps 617 mmHg 87%

    Tomorrow, 21 April, Sunday

    Time Temperature Precipitation Wind Pressure Humidity
    00:00 -2°C° 0.1 mm 2 mps 617 mmHg 86%
    01:00 -2°C° 0.1 mm 2 mps 617 mmHg 86%
    02:00 -2°C° 0.1 mm 2 mps 617 mmHg 85%
    03:00 -3°C° 0.1 mm 2 mps 617 mmHg 85%
    04:00 -2°C° 0 mm 2 mps 617 mmHg 84%
    05:00 -2°C° 0 mm 2 mps 618 mmHg 84%
    06:00 -2°C° 0 mm 2 mps 618 mmHg 84%
    07:00 -1°C° 0 mm 2 mps 618 mmHg 84%
    08:00 +1°C° 0 mm 2 mps 618 mmHg 84%
    09:00 +3°C° 0 mm 2 mps 619 mmHg 84%
    10:00 +3°C° 0.1 mm 2 mps 619 mmHg 83%
    11:00 +4°C° 0.1 mm 2 mps 618 mmHg 81%
    12:00 +5°C° 0.1 mm 2 mps 618 mmHg 79%
    13:00 +4°C° 0.1 mm 3 mps 618 mmHg 79%
    14:00 +4°C° 0.1 mm 3 mps 618 mmHg 78%
    15:00 +4°C° 0.1 mm 3 mps 618 mmHg 78%
    16:00 +3°C° 0.1 mm 3 mps 617 mmHg 79%
    17:00 +3°C° 0.1 mm 4 mps 617 mmHg 81%
    18:00 +1°C° 0.1 mm 4 mps 617 mmHg 83%
    19:00 0°C° 0.1 mm 4 mps 617 mmHg 83%
    20:00 -1°C° 0.1 mm 4 mps 617 mmHg 84%
    21:00 -2°C° 0.1 mm 4 mps 617 mmHg 85%
    22:00 -2°C° 0 mm 4 mps 617 mmHg 86%
    23:00 -2°C° 0 mm 4 mps 617 mmHg 86%

    Day after tomorrow, 22 April, Monday

    Time Temperature Precipitation Wind Pressure Humidity
    00:00 -3°C° 0 mm 4 mps 617 mmHg 87%
    01:00 -3°C° 0 mm 4 mps 617 mmHg 87%
    02:00 -3°C° 0 mm 4 mps 617 mmHg 87%
    03:00 -3°C° 0 mm 4 mps 616 mmHg 87%
    04:00 -3°C° 0 mm 4 mps 616 mmHg 87%
    05:00 -3°C° 0 mm 4 mps 616 mmHg 87%
    06:00 -4°C° 0 mm 5 mps 616 mmHg 86%
    07:00 -2°C° 0.3 mm 5 mps 616 mmHg 84%
    08:00 -2°C° 0.3 mm 5 mps 616 mmHg 82%
    09:00 -2°C° 0.3 mm 6 mps 616 mmHg 80%
    10:00 -2°C° 0.3 mm 6 mps 616 mmHg 80%
    11:00 -2°C° 0.3 mm 6 mps 616 mmHg 79%
    12:00 -2°C° 0.3 mm 6 mps 616 mmHg 79%
    13:00 -2°C° 0.5 mm 6 mps 616 mmHg 80%
    14:00 -2°C° 0.5 mm 6 mps 616 mmHg 80%
    15:00 -3°C° 0.5 mm 6 mps 616 mmHg 81%
    16:00 -2°C° 0.3 mm 5 mps 616 mmHg 82%
    17:00 -2°C° 0.3 mm 4 mps 616 mmHg 83%
    18:00 -3°C° 0.3 mm 4 mps 617 mmHg 84%
    19:00 -3°C° 0.4 mm 4 mps 617 mmHg 85%
    20:00 -4°C° 0.4 mm 4 mps 618 mmHg 86%
    21:00 -4°C° 0.4 mm 3 mps 618 mmHg 87%
    22:00 -4°C° 0.3 mm 3 mps 618 mmHg 88%
    23:00 -4°C° 0.3 mm 3 mps 618 mmHg 88%

    23 April, Tuesday

    Time Temperature Precipitation Wind Pressure Humidity
    00:00 -4°C° 0.3 mm 3 mps 619 mmHg 89%
    01:00 -4°C° 0.2 mm 3 mps 619 mmHg 89%
    02:00 -3°C° 0.2 mm 2 mps 619 mmHg 89%
    03:00 -4°C° 0.2 mm 2 mps 619 mmHg 88%
    04:00 -4°C° 0.1 mm 2 mps 619 mmHg 88%
    05:00 -4°C° 0.1 mm 2 mps 620 mmHg 87%
    06:00 -4°C° 0.1 mm 2 mps 620 mmHg 86%
    07:00 -3°C° 0 mm 2 mps 621 mmHg 82%
    08:00 -2°C° 0 mm 2 mps 621 mmHg 78%
    09:00 -1°C° 0 mm 2 mps 622 mmHg 74%
    10:00 +1°C° 0 mm 2 mps 622 mmHg 73%
    11:00 +2°C° 0 mm 2 mps 623 mmHg 72%
    12:00 +3°C° 0 mm 2 mps 623 mmHg 71%
    13:00 +3°C° 0 mm 2 mps 623 mmHg 71%
    14:00 +3°C° 0 mm 2 mps 623 mmHg 70%
    15:00 +4°C° 0 mm 2 mps 623 mmHg 70%
    16:00 +3°C° 0 mm 2 mps 623 mmHg 71%
    17:00 +3°C° 0 mm 2 mps 623 mmHg 71%
    18:00 +2°C° 0 mm 2 mps 623 mmHg 72%
    19:00 +1°C° 0 mm 2 mps 623 mmHg 76%
    20:00 -1°C° 0 mm 2 mps 623 mmHg 79%
    21:00 -1°C° 0 mm 2 mps 623 mmHg 82%
    22:00 -2°C° 0 mm 2 mps 623 mmHg 82%
    23:00 -2°C° 0 mm 2 mps 623 mmHg 81%

    24 April, Wednesday

    Time Temperature Precipitation Wind Pressure Humidity
    00:00 0°C° 0 mm 1 mps 623 mmHg 81%
    01:00 0°C° 0 mm 1 mps 623 mmHg 79%
    02:00 -1°C° 0 mm 1 mps 623 mmHg 77%
    03:00 -1°C° 0 mm 1 mps 623 mmHg 75%
    04:00 -1°C° 0 mm 1 mps 623 mmHg 74%
    05:00 0°C° 0 mm 1 mps 623 mmHg 72%
    06:00 0°C° 0 mm 1 mps 623 mmHg 71%
    07:00 +1°C° 0 mm 1 mps 624 mmHg 69%
    08:00 +3°C° 0 mm 1 mps 624 mmHg 67%
    09:00 +4°C° 0 mm 1 mps 625 mmHg 64%
    10:00 +5°C° 0 mm 1 mps 625 mmHg 65%
    11:00 +6°C° 0 mm 1 mps 624 mmHg 66%
    12:00 +6°C° 0 mm 1 mps 624 mmHg 67%
    13:00 +6°C° 0 mm 2 mps 624 mmHg 66%
    14:00 +6°C° 0 mm 2 mps 624 mmHg 65%
    15:00 +6°C° 0 mm 2 mps 624 mmHg 65%
    16:00 +5°C° 0 mm 2 mps 623 mmHg 66%
    17:00 +5°C° 0 mm 2 mps 623 mmHg 66%
    18:00 +3°C° 0 mm 3 mps 623 mmHg 67%
    19:00 +2°C° 0 mm 3 mps 623 mmHg 72%
    20:00 +1°C° 0 mm 3 mps 623 mmHg 78%
    21:00 +1°C° 0 mm 3 mps 623 mmHg 83%
    22:00 0°C° 0 mm 3 mps 623 mmHg 84%
    23:00 +1°C° 0 mm 2 mps 623 mmHg 85%

    25 April, Thursday

    Time Temperature Precipitation Wind Pressure Humidity
    00:00 -1°C° 0 mm 2 mps 623 mmHg 86%
    01:00 -1°C° 0 mm 2 mps 623 mmHg 86%
    02:00 -1°C° 0 mm 2 mps 623 mmHg 87%
    03:00 -2°C° 0 mm 2 mps 623 mmHg 87%
    04:00 -2°C° 0 mm 2 mps 623 mmHg 86%
    05:00 -2°C° 0 mm 2 mps 623 mmHg 85%
    06:00 -2°C° 0 mm 2 mps 623 mmHg 83%
    07:00 +1°C° 0 mm 2 mps 624 mmHg 78%
    08:00 +1°C° 0 mm 3 mps 624 mmHg 72%
    09:00 +2°C° 0 mm 3 mps 625 mmHg 66%
    10:00 +3°C° 0 mm 3 mps 625 mmHg 64%
    11:00 +4°C° 0 mm 3 mps 625 mmHg 63%
    12:00 +4°C° 0 mm 3 mps 625 mmHg 61%
    13:00 +5°C° 0.1 mm 3 mps 624 mmHg 60%
    14:00 +5°C° 0.1 mm 3 mps 624 mmHg 58%
    15:00 +5°C° 0.1 mm 3 mps 624 mmHg 57%
    16:00 +5°C° 0 mm 3 mps 624 mmHg 58%
    17:00 +4°C° 0 mm 3 mps 624 mmHg 59%
    18:00 +3°C° 0 mm 3 mps 624 mmHg 59%
    19:00 +2°C° 0 mm 3 mps 624 mmHg 64%
    20:00 +1°C° 0 mm 3 mps 624 mmHg 69%
    21:00 0°C° 0 mm 3 mps 624 mmHg 74%
    22:00 +1°C° 0 mm 2 mps 624 mmHg 76%
    23:00 +1°C° 0 mm 2 mps 623 mmHg 78%
    Show more